• Join FlightAware (Why Join?)
  • Login
  • US Flag 
03:45AM EDT


 

Airport Tracker/Info


-or-


 

Live Flight TrackerFlight Track Log ✈ FLG3432 ✈ 20-Jun-2013 ✈ KSLC - KDFW

Flight Track Log - Related Links

Times and Time Zones

All times are in EDT time to prevent confusion due to time zone crossing. See the FLG3432 flight status page for this flight to view local times or setup timezone preferences in your user account.

Time Position Orientation Groundspeed Altitude Reporting Facility
EDT Latitude Longitude Course Direction KTS MPH feet Rate Location/Type
07:33PM 40.8197 -111.9806 163° South 205 236 5,000  Level Salt Lake Center
07:34PM 40.8722 -111.9853 356° North 200 230 6,600 1,680 Climbing Salt Lake Center
07:35PM 40.9189 -111.9922 354° North 230 265 7,800 1,920 Climbing Salt Lake Center
07:36PM 41.1283 -111.8130 108° East  Level FlightAware Approximate
07:36PM 41.0267 -111.9964 358° North 278 320 10,800  Level Salt Lake Center
07:37PM 41.0423 -111.7331 163° South  Level FlightAware Approximate
07:37PM 41.0381 -111.9036 81° East 287 330 12,600  Level Salt Lake Center
07:38PM 40.9322 -111.6877 163° South  Level FlightAware Approximate
07:38PM 40.9692 -111.8392 145° Southeast 324 373 13,400  Level Salt Lake Center
07:39PM 40.8931 -111.7631 143° Southeast 345 397 15,200 1,980 Climbing Salt Lake Center
07:40PM 40.7978 -111.6669 143° Southeast 359 413 17,500 1,860 Climbing Salt Lake Center
07:41PM 40.7364 -111.5544 126° Southeast 396 456 19,100 1,440 Climbing Salt Lake Center
07:42PM 40.6964 -111.4161 111° Southeast 407 468 20,500 1,500 Climbing Salt Lake Center
07:43PM 40.6558 -111.2736 111° Southeast 416 479 22,300 1,500 Climbing Salt Lake Center
07:44PM 40.6144 -111.1303 111° Southeast 418 481 23,600 1,200 Climbing Salt Lake Center
07:45PM 40.5706 -110.9806 111° Southeast 434 499 24,800 1,200 Climbing Salt Lake Center
07:46PM 40.5167 -110.7978 111° Southeast 447 514 26,200 1,020 Climbing Salt Lake Center
07:47PM 40.4572 -110.6531 118° Southeast 450 518 27,000 780 Climbing Salt Lake Center
07:48PM 40.3853 -110.5131 124° Southeast 457 526 27,900 1,080 Climbing Salt Lake Center
07:50PM 40.3025 -110.3581 125° Southeast 464 534 29,300 960 Climbing Salt Lake Center
07:51PM 40.2317 -110.2236 125° Southeast 468 539 30,000 660 Climbing Salt Lake Center
07:52PM 40.1589 -110.0889 125° Southeast 473 544 30,700 720 Climbing Salt Lake Center
07:53PM 40.0733 -109.9283 125° Southeast 480 552 31,600 720 Climbing Salt Lake Center
07:54PM 39.9989 -109.7908 125° Southeast 485 558 32,300 720 Climbing Salt Lake Center
07:55PM 39.9125 -109.6292 125° Southeast 486 559 33,200 840 Climbing Salt Lake Center
07:56PM 39.8386 -109.4939 125° Southeast 479 551 34,100 780 Climbing Salt Lake Center
07:57PM 39.7533 -109.3375 125° Southeast 478 550 34,900 540 Climbing Salt Lake Center
07:57PM 39.7036 -109.2475 126° Southeast 475 547 35,000 60 Climbing Denver Center
07:58PM 39.6283 -109.1108 126° Southeast 487 560 35,000  Level Denver Center
07:59PM 39.5397 -108.9522 126° Southeast 490 564 35,000  Level Denver Center
08:00PM 39.4775 -108.8383 125° Southeast 494 568 35,000  Level Denver Center
08:03PM 39.3008 -108.5203 126° Southeast 491 565 35,000  Level Denver Center
08:04PM 39.2125 -108.3608 126° Southeast 491 565 35,000  Level Denver Center
08:05PM 39.1367 -108.2250 126° Southeast 490 564 35,000  Level Denver Center
08:06PM 39.0475 -108.0686 126° Southeast 486 559 35,000  Level Denver Center
08:07PM 38.9708 -107.9344 126° Southeast 488 562 35,000  Level Denver Center
08:08PM 38.8822 -107.7803 126° Southeast 480 552 35,000  Level Denver Center
08:09PM 38.8061 -107.6492 127° Southeast 479 551 35,000  Level Denver Center
08:10PM 38.7172 -107.4953 126° Southeast 482 555 35,000  Level Denver Center
08:11PM 38.6192 -107.3939 141° Southeast 472 543 35,000  Level Denver Center
08:12PM 38.5067 -107.2761 141° Southeast 468 539 35,000  Level Denver Center
08:13PM 38.4111 -107.1761 141° Southeast 469 540 35,000  Level Denver Center
08:14PM 38.2919 -107.1097 156° South 466 536 35,000  Level Denver Center
08:15PM 38.1817 -107.0281 150° Southeast 463 533 35,000  Level Denver Center
08:16PM 38.1156 -106.8397 114° Southeast 492 566 35,000  Level Denver Center
08:17PM 38.0419 -106.7111 126° Southeast 475 547 35,000  Level Denver Center
08:18PM 37.9094 -106.6606 163° South 446 513 35,000  Level Denver Center
08:19PM 37.8025 -106.7203 204° Southwest 430 495 35,000  Level Denver Center
08:20PM 37.7078 -106.8064 216° Southwest 436 502 35,000  Level Denver Center
08:21PM 37.5764 -106.8411 192° South 446 513 35,000  Level Denver Center
08:22PM 37.4706 -106.7686 151° Southeast 455 524 35,000  Level Denver Center
08:23PM 37.3875 -106.6153 124° Southeast 474 545 35,000  Level Denver Center
08:24PM 37.3414 -106.4936 115° Southeast 478 550 35,000  Level Denver Center
08:25PM 37.2692 -106.3014 115° Southeast 477 549 35,000  Level Denver Center
08:26PM 37.2139 -106.1556 115° Southeast 480 552 35,100  Climbing Denver Center
08:27PM 37.1489 -105.9847 115° Southeast 484 557 35,000 -60 Descending Denver Center
08:28PM 37.0928 -105.8358 115° Southeast 477 549 35,000  Level Denver Center
08:29PM 37.0364 -105.6917 116° Southeast 481 554 35,000  Level Denver Center
08:31PM 36.9731 -105.5244 115° Southeast 479 551 35,000  Level Denver Center
08:32PM 36.8994 -105.3339 116° Southeast 478 550 35,000  Level Denver Center
08:33PM 36.8522 -105.2144 116° Southeast 477 549 35,000  Level Albuquerque Center
08:34PM 36.7961 -105.0708 116° Southeast 480 552 35,100  Climbing Albuquerque Center
08:35PM 36.7308 -104.9053 116° Southeast 478 550 35,000 -60 Descending Albuquerque Center
08:36PM 36.6744 -104.7653 117° Southeast 479 551 35,000  Level Albuquerque Center
08:37PM 36.6150 -104.6153 116° Southeast 479 551 35,000  Level Albuquerque Center
08:38PM 36.5564 -104.4675 116° Southeast 475 547 35,000  Level Albuquerque Center
08:39PM 36.4978 -104.3200 116° Southeast 472 543 35,000  Level Albuquerque Center
08:40PM 36.4381 -104.1733 117° Southeast 471 542 35,000  Level Albuquerque Center
08:41PM 36.3683 -104.0006 117° Southeast 474 545 35,100  Climbing Albuquerque Center
08:42PM 36.3086 -103.8522 117° Southeast 476 548 35,000 -60 Descending Albuquerque Center
08:43PM 36.2483 -103.7058 117° Southeast 473 544 35,000  Level Albuquerque Center
08:44PM 36.1900 -103.5608 116° Southeast 467 537 35,000  Level Albuquerque Center
08:45PM 36.1300 -103.4169 117° Southeast 466 536 35,000  Level Albuquerque Center
08:46PM 36.0717 -103.2756 117° Southeast 459 528 35,000  Level Albuquerque Center
08:47PM 36.0147 -103.1383 117° Southeast 447 514 35,000  Level Albuquerque Center
08:48PM 35.9578 -103.0014 117° Southeast 445 512 35,000  Level Albuquerque Center
08:49PM 35.8989 -102.8603 117° Southeast 443 510 35,000  Level Albuquerque Center
08:50PM 35.8422 -102.7275 118° Southeast 440 506 35,000  Level Albuquerque Center
08:51PM 35.7861 -102.5939 117° Southeast 440 506 35,000  Level Albuquerque Center
08:52PM 35.7281 -102.4603 118° Southeast 441 507 35,000  Level Albuquerque Center
08:53PM 35.6711 -102.3244 117° Southeast 446 513 35,000  Level Albuquerque Center
08:54PM 35.6139 -102.1892 117° Southeast 447 514 35,000  Level Albuquerque Center
08:55PM 35.5431 -102.0286 118° Southeast 445 512 35,000  Level Albuquerque Center
08:56PM 35.4864 -101.8917 117° Southeast 447 514 35,000  Level Albuquerque Center
08:57PM 35.4264 -101.7556 118° Southeast 447 514 35,000  Level Albuquerque Center
08:58PM 35.3750 -101.6347 118° Southeast 447 514 35,000  Level Albuquerque Center
08:59PM 35.3139 -101.4989 119° Southeast 451 519 35,100  Climbing Albuquerque Center
09:00PM 35.2444 -101.3347 117° Southeast 453 521 35,000 -60 Descending Albuquerque Center
09:01PM 35.1847 -101.2042 119° Southeast 458 527 35,000  Level Albuquerque Center
09:02PM 35.1253 -101.0689 118° Southeast 454 522 35,000  Level Albuquerque Center
09:03PM 35.0656 -100.9350 119° Southeast 451 519 35,000  Level Albuquerque Center
09:04PM 35.0064 -100.7997 118° Southeast 451 519 35,000  Level Albuquerque Center
09:05PM 34.9458 -100.6664 119° Southeast 451 519 35,000  Level Albuquerque Center
09:06PM 34.8731 -100.5044 119° Southeast 454 522 35,000  Level Albuquerque Center
09:07PM 34.8114 -100.3672 119° Southeast 460 529 35,000  Level Albuquerque Center
09:08PM 34.7461 -100.2219 119° Southeast 464 534 35,000 -180 Level Albuquerque Center
09:09PM 34.6822 -100.0839 119° Southeast 467 537 34,700 -780 Descending Albuquerque Center
09:11PM 34.6131 -99.9342 119° Southeast 475 547 33,400 -840 Descending Fort Worth Center
09:12PM 34.5653 -99.8192 117° Southeast 457 526 33,000 -240 Descending Fort Worth Center
09:13PM 34.4908 -99.6686 121° Southeast 462 532 33,000  Level Fort Worth Center
09:14PM 34.4286 -99.5333 119° Southeast 457 526 33,000  Level Fort Worth Center
09:15PM 34.3619 -99.3958 120° Southeast 462 532 33,000  Level Fort Worth Center
09:16PM 34.3056 -99.2714 119° Southeast 468 539 33,000  Level Fort Worth Center
09:17PM 34.2428 -99.1294 118° Southeast 474 545 33,000 -360 Level Fort Worth Center
09:18PM 34.1678 -98.9772 121° Southeast 473 544 32,300 -1,320 Descending Fort Worth Center
09:19PM 34.0983 -98.8331 120° Southeast 479 551 30,400 -2,040 Descending Fort Worth Center
09:20PM 34.0333 -98.6892 119° Southeast 491 565 28,300 -2,100 Descending Fort Worth Center
09:21PM 33.9678 -98.5506 120° Southeast 486 559 26,300 -2,040 Descending Fort Worth Center
09:22PM 33.8917 -98.4294 127° Southeast 472 543 24,300 -2,160 Descending Fort Worth Center
09:23PM 33.8133 -98.3083 128° Southeast 466 536 22,000 -2,220 Descending Fort Worth Center
09:24PM 33.7347 -98.1878 128° Southeast 461 531 19,900 -2,160 Descending Fort Worth Center
09:25PM 33.6664 -98.0822 128° Southeast 455 524 17,700 -2,160 Descending Fort Worth Center
09:26PM 33.5981 -97.9719 127° Southeast 432 497 15,600 -2,280 Descending Fort Worth Center
09:27PM 33.5214 -97.8544 128° Southeast 418 481 13,200 -2,220 Descending Fort Worth Center
09:28PM 33.4611 -97.7619 128° Southeast 400 460 11,200 -1,200 Descending Fort Worth Center
09:29PM 33.3989 -97.6672 128° Southeast 355 409 10,900 -840 Descending Fort Worth Center
09:29PM 33.3667 -97.6167 127° Southeast 281 323 10,000 -1,680 Descending Dallas / Fort Worth TRACON
09:30PM 33.3167 -97.5667 140° Southeast 284 327 8,600 -1,560 Descending Dallas / Fort Worth TRACON
09:31PM 33.2833 -97.5000 121° Southeast 274 315 7,100 -1,500 Descending Dallas / Fort Worth TRACON
09:32PM 33.2500 -97.4000 112° Southeast 275 316 5,700 -1,080 Descending Dallas / Fort Worth TRACON
09:33PM 33.2333 -97.3167 103° East 278 320 5,000 -360 Descending Dallas / Fort Worth TRACON
09:34PM 33.1833 -97.2333 126° Southeast 260 299 5,000 -120 Level Dallas / Fort Worth TRACON
09:35PM 33.1333 -97.1667 132° Southeast 260 299 4,800 -780 Descending Dallas / Fort Worth TRACON
09:36PM 33.0833 -97.1167 140° Southeast 249 287 3,400 -1,380 Descending Dallas / Fort Worth TRACON